Regional Weather Roundup
Issued by NWS San Diego, CA

Home | Current Version | Previous Version | Text Only | Print | Product List | Glossary On
Versions: 1 2 3 4 5 6 7 8 9 10 11 12 13 14 15 16 17 18 19 20 21 22 23 24 25 26 27 28
000
ASUS46 KSGX 101011
RWRSGX

SAN DIEGO HOURLY WEATHER ROUNDUP
NATIONAL WEATHER SERVICE SAN DIEGO CA
200 AM PST SAT DEC 10 2016

NOTE: "FAIR" INDICATES FEW OR NO CLOUDS BELOW 12,000 FEET WITH NO
SIGNIFICANT WEATHER AND/OR OBSTRUCTIONS TO VISIBILITY.

CAZ042-043-060-061-PZZ750-775-101100-

GREATER SAN DIEGO AREA

CITY           SKY/WX    TMP DP  RH WIND       PRES   REMARKS
SAN DIEGO AP   CLOUDY    59  53  80 NE6       30.18F
NATIONAL CITY    N/A     59  55  85 CALM      30.17F
CHULA VISTA      N/A     58  55  90 E2        30.10S
IMPERIAL BEACH CLOUDY    61  53  75 E7        30.17F
BROWN FIELD    CLOUDY    56  54  93 NE3       30.16F
MIRAMAR MCAS   CLOUDY    59  54  83 E5        30.16F
MONTGOMERY FLD CLOUDY    57  52  83 E3        30.17F

$$

NORTH SAN DIEGO COUNTY

CITY           SKY/WX    TMP DP  RH WIND       PRES   REMARKS
CAMP PENDLETON CLOUDY    55  54  96 NE7       30.16F FOG
OCEANSIDE AP   CLOUDY    56  53  90 NE6       30.15F FOG
OCEANSIDE HBR    N/A     55  53  93 NE1       30.19F
VISTA            N/A     55  49  82 CALM      30.15F
CARLSBAD       CLOUDY    58  55  90 E6        30.15F FOG
DEL MAR          N/A     58  55  89 CALM      30.18F
LA JOLLA SCRIP   N/A     59  56  88 N2        30.16F
FALLBROOK        N/A     54  54 100 CALM      30.17F
ESCONDIDO        N/A     55  52  90 E1        30.19F

$$

EAST SAN DIEGO COUNTY

CITY           SKY/WX    TMP DP  RH WIND       PRES   REMARKS
RAMONA           N/A     45  44  97 E5        30.17F VSB 1/4
SANTEE LAKES     N/A     54  52  93 CALM      30.17F
LA MESA          N/A     54  52  94 CALM      30.11F
JAMUL            N/A     51  50  95 CALM      30.18F
DESCANSO N       N/A     42  39  88 NE5       30.16R
CAMPO            N/A     39  37  92 CALM      30.15S

$$

ORANGE COUNTY AND THE LOS ANGELES BASIN

CITY           SKY/WX    TMP DP  RH WIND       PRES   REMARKS
JOHN WAYNE AP  CLOUDY    60  56  86 SE6       30.15F
LAGUNA BEACH     N/A     59  57  92 CALM      30.11F
LAKE FOREST FR   N/A     52  48  87 CALM      30.05F
HUNTINGTON BCH   N/A     59  57  92 CALM      30.17F
LOS ALAMITOS   CLOUDY    57  55  92 NE3       30.16S
FULLERTON      CLOUDY    57  55  93 CALM      30.15F FOG
LONG BEACH     CLOUDY    58  53  84 NE5       30.16S HAZE
L.A. AP        CLOUDY    59  56  89 SE5       30.16S FOG
L.A. DOWNTOWN  CLOUDY    57  55  93 CALM      30.16S FOG

$$

THE INLAND EMPIRE

CITY           SKY/WX    TMP DP  RH WIND       PRES   REMARKS
CORONA         PTCLDY    41  40  96 CALM      30.17F
CHINO          CLEAR     48  46  93 NE3       30.18F HAZE
ONTARIO        PTCLDY    49  48  97 NE3       30.16F FOG
SAN BERNARDINO FAIR      46  41  81 NE3       30.17F
RIVERSIDE AP   CLEAR     49  47  93 NE5       30.17F FOG
MORENO VALLEY    N/A     49  47  94 CALM      28.29S
MARCH ARB      CLEAR     43  43 100 CALM      30.17S FOG
HORSETHIEF CYN   N/A     48  41  77 CALM      30.22S
PERRIS           N/A     48  46  93 CALM      30.20S
HEMET EAST       N/A     49  41  73 CALM      30.22S
FRENCH VALLEY  NOT AVBL
TEMECULA         N/A     47  47  97 CALM      30.23S

$$

SAN BERNARDINO AND RIVERSIDE COUNTY MOUNTAINS

CITY           SKY/WX    TMP DP  RH WIND       PRES   REMARKS
BIG BEAR AP    CLEAR     27  23  86 CALM      30.28F
ANGELUS OAKS     N/A     42  28  57 CALM      30.15S
PINE COVE        N/A     43  33  66 N2        30.15S

$$

SOUTHERN DESERT INCLUDING THE COACHELLA VALLEY

CITY           SKY/WX    TMP DP  RH WIND       PRES   REMARKS
PALM SPRINGS   CLEAR     53  43  68 NW3         N/A
PALM DESERT      N/A     50  41  71 CALM      31.55S
THERMAL        CLEAR     44  38  79 NE3       30.13R
BLYTHE         CLEAR     49  17  28 SW5       30.14F
IMPERIAL AP    CLEAR     47  28  47 CALM      30.12F
EL CENTRO NAS  CLEAR     48  26  42 SW5       30.14F
YUMA AZ        CLEAR     52  26  36 CALM      30.13

$$

UPPER DESERT

CITY           SKY/WX    TMP DP  RH WIND       PRES   REMARKS
VICTORVILLE AP   N/A     43  34  70 CALM      30.17F
HESPERIA         N/A     44  39  81 W2        30.30F
PALMDALE       CLEAR     46  39  76 SW5       30.17F
LANCASTER      CLEAR     50  44  80 CALM      30.17F
EDWARDS AFB    CLEAR     42  35  76 W7        30.14F
DAGGETT        CLEAR     38  14  37 CALM      30.17F
29 PALMS N     CLEAR     43  24  47 N3        30.24S
NEEDLES        CLEAR     48  17  29 W5        30.17F

$$

REGIONAL REPORTS

CITY           SKY/WX    TMP DP  RH WIND       PRES   REMARKS
SANTA BARBARA  CLEAR     55  55 100 W5        30.16R FOG
SANDBERG       FOG       50  48  93 N9G21     30.23S VSB 1/2
LAS VEGAS NV   PTCLDY    42  15  33 CALM      30.18F
PHOENIX AZ     PTCLDY    51  40  65 CALM      30.13S
TIJUANA          N/A    N/A N/A N/A MISG        N/A
ENSENADA NW      N/A     56  32  40 N1        30.14S

$$

OFFSHORE ISLANDS

CITY           SKY/WX    TMP DP  RH WIND       PRES   REMARKS
CATALINA ARPT  FOG       55  55 100 NW9       30.16F VSB 1/4
SAN NICOLAS IS CLOUDY    57  32  38 W23       30.17R FOG

$$

MARINE AND OFFSHORE BUOY REPORTS

STATION/POSITION SKY/WX   TEMP    WIND        PRES    SWELL
                          AIR SEA DIR/SP/G            HT/PER/DIR
                          (F)     (DEG/KT/KT) (MB)    (FT/S/D)
TANNER BANKS               61 61  300/ 17/ 21 1022.0F   3/330/16
S CLEMENTE BASIN           60 62  310/ 10/ 12 1021.5F   3/290/15
SAN NICOLAS IS.               58                N/A     3/290/15
SO. S. ROSA ISLA           59 59  290/ 14/ 17 1022.1R   5/300/ 9
W. S. BARBARA CH           57 56  310/ 10/ 12 1022.3R   5/270/ 8
M. S. BARBARA CH                  280/ 12/ 14 1021.9R
S. MONICA BASIN            60 61  320/ 10/ 12 1021.0F   3/280/14
S PEDRO CHANNEL               61                N/A     2/270/15
CMP PENDLETON NS              60                N/A     2/220/14
OCEANSIDE OFFSHR              62                N/A     2/230/15
TORREY PINES OTR              62                N/A     2/250/15
POINT LOMA SOUTH              62                N/A     2/280/17

$$





USA.gov is the U.S. government's official web portal to all federal, state and local government web resources and services.